Location: Niedergestelen
(46.3129°N, 7.7822°E)
Time: 19:56:10
(UTC+00:00)

SAR-Lupe-1 - Pass Details

Date: 01 December 2020
Orbit: 480 x 485 km, 98.2° (Epoch: 23 January)

Event Time Altitude Azimuth Distance (km) Brightness Sun altitude
Exits shadow 17:45:29 72° 82° (E) 513 3.9 -20.3°
Maximum altitude 17:45:36 73° 102° (ESE) 510 3.9 -20.3°
Drops below altitude 10° 17:49:10 10° 189° (S) 1,658 7.0 -20.9°
Sets 17:51:13 0° 191° (S) 2,532 8.0 -21.2°
